Location: Czu?�w
(50.1404°N, 18.9919°E)
Time: 03:30:13
(UTC+00:00)

Cosmos 1315 Rocket - Pass Details

Date: 27 October 2020
Orbit: 530 x 567 km, 81.2° (Epoch: 27 November)

Event Time Altitude Azimuth Distance (km) Brightness Sun altitude
Rises 17:50:37 0° 196° (SSW) 2,677 6.4 -23.2°
Reaches altitude 10° 17:52:45 10° 198° (SSW) 1,796 5.5 -23.6°
Enters shadow 17:56:36 72° 269° (W) 577 2.9 -24.2°
